Location: Le Gr�zie
(43.6000°N, 13.5000°E)
Time: 03:27:11
(UTC+00:00)

SPOT 5 - Pass Details

Date: 09 April 2020
Orbit: 624 x 814 km, 98.3° (Epoch: 02 June)

Event Time Altitude Azimuth Distance (km) Brightness Sun altitude
Exits shadow 20:31:37 36° 16° (NNE) 992 3.7 -27.5°
Drops below altitude 10° 20:34:24 10° 356° (N) 2,006 5.8 -27.9°
Sets 20:36:37 0° 352° (N) 2,923 6.8 -28.1°
